TIANLIAN 1-03

Last updated on Tue Jan 16 2024 00:02:37 GMT+0000 (Coordinated Universal Time)

1 38730U 12040A 24015.16505951 -.00000074 00000+0 00000+0 0 9992 2 38730 3.6739 68.6144 0014963 114.3913 10.4990 0.98923615 39867
UTC large
Height (km)
Speed (km/s)
/
Latitude / Longitude
Inclination (degrees)
Orbital Period (minutes)
Azimuth
Elevation
Range (km)
Doppler Factor

Next 0 passes for location: London (51.5072 / 0.1276)

Sorry there are no passes over London.